Weather History for Wolf Point, MT

Change the Weather History Date:

Wednesday, April 17, 2013

  Actual Average Record
Temperature  
Mean Temperature 26 °F -  
Max Temperature 34 °F 60 °F 84 °F (2005)
Min Temperature 18 °F 29 °F 17 °F (1999)
Degree Days  
Heating Degree Days 39    
Cooling Degree Days 0    
Moisture  
Dew Point 21 °F    
Average Humidity 79    
Maximum Humidity 88    
Minimum Humidity 50    
Precipitation  
Precipitation T in 0.03 in 0.39 in (2004)
Month to date precipitation 0.19 0.41  
Year to date precipitation 0.92 1.39  
Sea Level Pressure  
Sea Level Pressure 30.37 in    
Wind  
Wind Speed 7 mph (North)    
Max Wind Speed 10 mph    
Max Gust Speed -    
Visibility 7 miles    
Events Snow    
T = Trace of Precipitation, MM = Missing Value Source: NWS Daily Summary

Daily Weather History Graph

Daily Weather History Graph

Search for Another Location

Airport:

Trip Planner

Search our weather history database for the weather conditions in past years. The results will help you decide how hot, cold, wet, or windy it might be!

Date:

Astronomy

Apr. 17, 2013 Rise Set
Actual Time 6:08 AM MDT 7:56 PM MDT
Civil Twilight 5:35 AM MDT 8:29 PM MDT
Nautical Twilight 4:54 AM MDT 9:09 PM MDT
Astronomical Twilight 4:10 AM MDT 9:54 PM MDT
Moon 11:15 AM MDT (4/17) 1:45 AM MDT (4/17)
Length of Visible Light 14h 53m
Length of Day
13h 47m
Waxing Crescent, 43% of the Moon is Illuminated
Apr 17
Waxing Crescent
Apr 18
First Quarter
Apr 25
Full
May 2
Last Quarter
May 9
New

Hourly Weather History & Observations

Time (MDT) Temp. Windchill Dew Point Humidity Pressure Visibility Wind Dir Wind Speed Gust Speed Precip Events Conditions
12:03 AM 26.6 °F 16.8 °F 23.0 °F 86% 30.36 in 2.5 mi ENE 10.4 mph - 0.00 in Snow Light Snow
12:27 AM 26.6 °F 16.8 °F 23.0 °F 86% 30.36 in 1.5 mi ENE 10.4 mph - 0.00 in Snow Light Snow
12:42 AM 26.6 °F 17.5 °F 23.0 °F 86% 30.36 in 2.0 mi ENE 9.2 mph - 0.00 in Snow Light Snow
12:53 AM 26.1 °F 17.6 °F 23.0 °F 88% 30.45 in 2.0 mi ENE 8.1 mph - 0.00 in Snow Light Snow
1:14 AM 26.6 °F 17.5 °F 23.0 °F 86% 30.36 in 1.8 mi ENE 9.2 mph - 0.00 in Snow Light Snow
1:35 AM 26.6 °F 16.8 °F 23.0 °F 86% 30.35 in 2.0 mi ENE 10.4 mph - 0.00 in Snow Light Snow
1:53 AM 26.1 °F 17.6 °F 23.0 °F 88% 30.44 in 2.0 mi ENE 8.1 mph - 0.00 in Snow Light Snow
2:11 AM 24.8 °F 17.9 °F 21.2 °F 86% 30.35 in 3.0 mi NE 5.8 mph - 0.00 in Snow Light Snow
2:43 AM 24.8 °F 17.9 °F 21.2 °F 86% 30.34 in 2.0 mi NE 5.8 mph - 0.00 in Snow Light Snow
2:53 AM 24.1 °F 17.0 °F 21.0 °F 88% 30.43 in 2.5 mi NE 5.8 mph - 0.00 in Snow Light Snow
3:05 AM 24.8 °F 19.1 °F 21.2 °F 86% 30.34 in 3.0 mi NE 4.6 mph - 0.00 in Snow Light Snow
3:46 AM 24.8 °F 20.5 °F 21.2 °F 86% 30.34 in 2.5 mi NE 3.5 mph - 0.00 in Snow Light Snow
3:53 AM 24.1 °F 18.2 °F 21.0 °F 88% 30.43 in 1.8 mi NE 4.6 mph - 0.00 in Snow Light Snow
4:29 AM 24.8 °F 16.9 °F 21.2 °F 86% 30.33 in 2.5 mi NNE 6.9 mph - 0.00 in Snow Light Snow
4:42 AM 23.0 °F 14.7 °F 19.4 °F 86% 30.33 in 4.0 mi NNE 6.9 mph - 0.00 in Snow Light Snow
4:53 AM 23.0 °F 14.7 °F 19.9 °F 88% 30.42 in 5.0 mi NNE 6.9 mph - 0.00 in Snow Light Snow
5:41 AM 23.0 °F 15.8 °F 19.4 °F 86% 30.33 in 10.0 mi NNE 5.8 mph - 0.00 in   Overcast
5:53 AM 23.0 °F 15.8 °F 19.9 °F 88% 30.42 in 10.0 mi NNE 5.8 mph - 0.00 in   Overcast
6:11 AM 24.8 °F 19.1 °F 19.4 °F 80% 30.32 in 6.0 mi NE 4.6 mph - N/A   Overcast
6:53 AM 21.9 °F 14.5 °F 18.0 °F 85% 30.41 in 6.0 mi NNE 5.8 mph - 0.00 in   Overcast
7:45 AM 21.2 °F - 17.6 °F 86% 30.33 in 8.0 mi Calm Calm - 0.00 in   Overcast
7:53 AM 23.0 °F - 19.4 °F 86% 30.33 in 9.0 mi Calm Calm - N/A   Overcast
8:21 AM 24.8 °F - 19.4 °F 80% 30.33 in 10.0 mi Calm Calm - N/A   Overcast
8:53 AM 25.0 °F - 19.9 °F 81% 30.42 in 10.0 mi Calm Calm - N/A   Overcast
9:39 AM 26.6 °F - 21.2 °F 80% 30.33 in 7.0 mi Calm Calm - N/A   Overcast
9:53 AM 27.0 °F - 21.9 °F 81% 30.42 in 6.0 mi Calm Calm - N/A   Haze
10:53 AM 28.0 °F 24.2 °F 21.9 °F 78% 30.43 in 10.0 mi West 3.5 mph - N/A   Overcast
11:26 AM 30.2 °F - 21.2 °F 69% 30.33 in 10.0 mi Calm Calm - N/A   Overcast
11:53 AM 28.9 °F 22.8 °F 23.0 °F 78% 30.42 in 10.0 mi WSW 5.8 mph - N/A   Overcast
12:53 PM 30.0 °F 22.4 °F 23.0 °F 75% 30.41 in 9.0 mi West 8.1 mph - N/A   Overcast
1:53 PM 30.0 °F 24.1 °F 23.0 °F 75% 30.40 in 6.0 mi West 5.8 mph - 0.00 in   Haze
2:07 PM 30.2 °F 25.4 °F 21.2 °F 69% 30.31 in 7.0 mi West 4.6 mph - N/A   Overcast
2:31 PM 32.0 °F 23.6 °F 23.0 °F 69% 30.31 in 10.0 mi West 10.4 mph - N/A   Mostly Cloudy
2:53 PM 33.1 °F 24.9 °F 19.9 °F 59% 30.39 in 10.0 mi West 10.4 mph - N/A   Scattered Clouds
3:53 PM 33.1 °F 26.1 °F 18.0 °F 54% 30.37 in 10.0 mi WNW 8.1 mph - N/A   Clear
4:53 PM 33.1 °F 28.7 °F 17.1 °F 52% 30.38 in 10.0 mi West 4.6 mph - N/A   Clear
5:53 PM 33.1 °F 24.9 °F 16.0 °F 50% 30.38 in 10.0 mi NW 10.4 mph - N/A   Mostly Cloudy
6:53 PM 30.9 °F 22.2 °F 19.0 °F 61% 30.38 in 10.0 mi NNW 10.4 mph - N/A   Partly Cloudy
7:53 PM 28.9 °F 21.9 °F 21.9 °F 75% 30.39 in 10.0 mi WNW 6.9 mph - N/A   Clear
8:53 PM 27.0 °F 20.5 °F 21.0 °F 78% 30.40 in 10.0 mi WNW 5.8 mph - N/A   Clear
9:53 PM 24.1 °F 16.0 °F 19.9 °F 84% 30.40 in 10.0 mi NW 6.9 mph - N/A   Scattered Clouds
10:53 PM 21.0 °F 12.4 °F 17.1 °F 85% 30.39 in 10.0 mi NW 6.9 mph - N/A   Clear
11:53 PM 21.0 °F - 16.0 °F 81% 30.37 in 10.0 mi Calm Calm - N/A   Clear